Location: Cargill Incorporated Elevator
(42.7294°N, 93.7333°W)
Time: 04:22:02
(UTC+00:00)

Cosmos 1703 - Pass Details

Date: 19 January 2026
Orbit: 413 x 425 km, 82.5° (Epoch: 14 February)

Event Time Altitude Azimuth Distance (km) Brightness Sun altitude
Rises 23:43:02 0° 195° (SSW) 2,387 7.2 -6.1°
Reaches altitude 10° 23:45:05 10° 200° (SSW) 1,524 6.2 -6.4°
Maximum altitude 23:48:21 57° 280° (W) 513 3.5 -7.0°
Drops below altitude 10° 23:51:39 10° 360° (N) 1,530 5.4 -7.6°
Sets 23:53:43 0° 5° (N) 2,398 6.3 -7.9°
